Location: Home
(42.5358°N, 72.7383°W)
Time: 23:55:41
(UTC-05:00)

Vanguard 3 - Pass Details

Date: 29 November 2021
Orbit: 508 x 3260 km, 33.3° (Epoch: 21 January)

Event Time Altitude Azimuth Distance (km) Brightness Sun altitude
Rises 05:09:59 0° 239° (WSW) 7,221 11.6 -19.6°
Reaches altitude 10° 05:15:08 10° 235° (SW) 6,162 11.2 -18.7°
Maximum altitude 05:33:07 52° 167° (SSE) 3,091 10.2 -15.5°
Drops below altitude 10° 05:45:08 10° 96° (E) 4,263 12.2 -13.4°
Sets 05:47:59 0° 91° (E) 4,940 12.8 -12.9°
